This is the latest recevied weather packets stored in our database for station/object K8JMX-13. If no packets are shown the sender has not sent any weather packets the latest 10 day(s).
| Time | Temp. | Humidity | Pressure | Rain* | Wind** | Luminosity | Snow |
|---|---|---|---|---|---|---|---|
| 1777565012 | 9.44° C | 69% | 1014.6 hPa | 0 mm | - | 207 W/m² | - |
| 1777564708 | 9.44° C | 69% | 1014.7 hPa | 0 mm | - | 207 W/m² | - |
| 1777564404 | 9.44° C | 71% | 1014.6 hPa | 0 mm | - | 186 W/m² | - |
| 1777564100 | 8.89° C | 71% | 1014.8 hPa | 0 mm | - | 203 W/m² | - |
| 1777563796 | 9.44° C | 73% | 1014.8 hPa | 0 mm | - | 160 W/m² | - |
| 1777563493 | 9.44° C | 73% | 1014.7 hPa | 0 mm | - | 110 W/m² | - |
| 1777563192 | 9.44° C | 73% | 1014.6 hPa | 0 mm | - | 121 W/m² | - |
| 1777562889 | 8.89° C | 73% | 1014.6 hPa | 0 mm | - | 261 W/m² | - |
| 1777562585 | 8.33° C | 75% | 1014.8 hPa | 0 mm | - | 225 W/m² | - |
| 1777562284 | 8.33° C | 74% | 1014.4 hPa | 0 mm | - | 105 W/m² | - |
| 1777561980 | 8.33° C | 74% | 1014.4 hPa | 0 mm | - | 62 W/m² | - |
| 1777561678 | 8.33° C | 74% | 1014.4 hPa | 0 mm | - | 64 W/m² | - |
| 1777561373 | 8.33° C | 74% | 1014.4 hPa | 0 mm | - | 105 W/m² | - |
| 1777561068 | 8.33° C | 76% | 1014.3 hPa | 0 mm | - | 92 W/m² | - |
| 1777560764 | 8.89° C | 77% | 1014.2 hPa | 0 mm | - | 127 W/m² | - |
| 1777560461 | 8.33° C | 79% | 1014.2 hPa | 0 mm | - | 186 W/m² | - |
| 1777560159 | 8.33° C | 80% | 1014.1 hPa | 0 mm | - | 206 W/m² | - |
| 1777559856 | 8.33° C | 81% | 1014.1 hPa | 0 mm | - | 133 W/m² | - |
| 1777559551 | 7.78° C | 81% | 1014.1 hPa | 0 mm | - | 140 W/m² | - |
| 1777559249 | 7.78° C | 81% | 1014 hPa | 0 mm | - | 189 W/m² | - |
| 1777558944 | 7.78° C | 82% | 1013.9 hPa | 0 mm | - | 208 W/m² | - |
| 1777558640 | 7.22° C | 82% | 1014 hPa | 0 mm | - | 156 W/m² | - |
| 1777558335 | 7.78° C | 81% | 1013.9 hPa | 0 mm | - | 126 W/m² | - |
| 1777558033 | 7.78° C | 80% | 1013.8 hPa | 0 mm | - | 89 W/m² | - |
| 1777557728 | 7.78° C | 80% | 1013.8 hPa | 0 mm | - | 134 W/m² | - |
* Rain latest hour (hover to see other rain measurements)
** Current wind speed in m/s (hover to see current wind gust speed)